カタログに戻る

NAVSTAR 25

USA 80

運用中ナビゲーションMEO
NORAD 21930·PAYLOAD·🇺🇸 United States

打ち上げ Apr 10, 1992 から Cape Canaveral Space Force Station

Loading…

次のパス (今後24時間)

TLE

最新Source: Space-Track

元期: Sep 14, 2026, 12:40 UTC

1 21930U 92019A   26257.52798869 -.00000065  00000-0  00000+0 0  9993
2 21930  54.8594 302.0879 0030044 347.9496   9.5184  1.87661535243125

AllMySatでNAVSTAR 25をリアルタイム追跡

Download on the App Store